This is the latest recevied weather packets stored in our database for station/object IU5JAE-13. If no packets are shown the sender has not sent any weather packets the latest 10 day(s).
| Time | Temp. | Humidity | Pressure | Rain* | Wind** | Luminosity | Snow |
|---|---|---|---|---|---|---|---|
| 1788457529 | 26.11° C | 65% | 1020.1 hPa | 0 mm | - | 5 W/m² | - |
| 1788456927 | 26.11° C | 64% | 1019.9 hPa | 0 mm | - | 9 W/m² | - |
| 1788456324 | 26.11° C | 63% | 1020 hPa | 0 mm | - | 17 W/m² | - |
| 1788455722 | 26.11° C | 64% | 1020 hPa | 0 mm | - | 21 W/m² | - |
| 1788455120 | 26.11° C | 65% | 1019.9 hPa | 0 mm | - | 16 W/m² | - |
| 1788454517 | 26.11° C | 66% | 1019.9 hPa | 0 mm | - | 22 W/m² | - |
| 1788453935 | 26.11° C | 65% | 1020 hPa | 0 mm | - | 27 W/m² | - |
| 1788453332 | 26.67° C | 62% | 1019.9 hPa | 0 mm | - | 30 W/m² | - |
| 1788452730 | 26.67° C | 61% | 1019.8 hPa | 0 mm | - | 34 W/m² | - |
| 1788452128 | 27.22° C | 59% | 1019.9 hPa | 0 mm | - | 46 W/m² | - |
| 1788451526 | 27.78° C | 57% | 1020.1 hPa | 0 mm | - | 53 W/m² | - |
| 1788450923 | 28.89° C | 56% | 1020 hPa | 0 mm | - | 141 W/m² | - |
| 1788450320 | 27.78° C | 58% | 1020.1 hPa | 0 mm | - | 122 W/m² | - |
| 1788449718 | 28.89° C | 57% | 1020.1 hPa | 0 mm | - | 183 W/m² | - |
| 1788449115 | 28.89° C | 57% | 1020.1 hPa | 0 mm | - | 161 W/m² | - |
| 1788448533 | 29.44° C | 55% | 1020.1 hPa | 0 mm | - | 211 W/m² | - |
| 1788447931 | 30° C | 53% | 1020.1 hPa | 0 mm | - | 236 W/m² | - |
| 1788447328 | 29.44° C | 53% | 1020.1 hPa | 0 mm | - | 251 W/m² | - |
| 1788446726 | 30° C | 51% | 1020.1 hPa | 0 mm | - | 268 W/m² | - |
| 1788446124 | 30° C | 51% | 1020.3 hPa | 0 mm | - | 285 W/m² | - |
| 1788445521 | 29.44° C | 53% | 1020.1 hPa | 0 mm | - | 302 W/m² | - |
| 1788444919 | 29.44° C | 54% | 1020.3 hPa | 0 mm | - | 321 W/m² | - |
| 1788444316 | 30° C | 54% | 1020.2 hPa | 0 mm | - | 341 W/m² | - |
| 1788443734 | 29.44° C | 55% | 1020.2 hPa | 0 mm | - | 362 W/m² | - |
| 1788443131 | 30° C | 55% | 1020.2 hPa | 0 mm | - | 378 W/m² | - |
* Rain latest hour (hover to see other rain measurements)
** Current wind speed in m/s (hover to see current wind gust speed)